Haines, AK

8:14 AM AKDT on September 24, 2017 (GMT -0800)
Haines

Weather History for PAHN - November, 2013

Change the Weather History Date:

Monday, November 4, 2013

  Actual Average Record
Temperature  
Mean Temperature 32 °F -  
Max Temperature 37 °F 37 °F 51 °F (1974)
Min Temperature 28 °F 29 °F 11 °F (1975)
Degree Days  
Heating Degree Days 32    
Moisture  
Dew Point 30 °F    
Average Humidity 95    
Maximum Humidity 100    
Minimum Humidity 79    
Precipitation  
Precipitation 0.10 in - - ()
Sea Level Pressure  
Sea Level Pressure 29.75 in    
Wind  
Wind Speed 6 mph (WNW)    
Max Wind Speed 13 mph    
Max Gust Speed -    
Visibility 4 miles    
Events Rain , Snow    
Averages and records for this station are not official NWS values.
T = Trace of Precipitation, MM = Missing Value Source: NWS Daily Summary

Daily Weather History Graph

Daily Weather History Graph

Search for Another Location

Airport or City:

Trip Planner

Search our weather history database for the weather conditions in past years. The results will help you decide how hot, cold, wet, or windy it might be!

Date:

Astronomy

Nov. 04, 2013 Rise Set
Actual Time 7:29 AM AKST 4:00 PM AKST
Civil Twilight 6:44 AM AKST 4:45 PM AKST
Nautical Twilight 5:56 AM AKST 5:34 PM AKST
Astronomical Twilight 5:08 AM AKST 6:21 PM AKST
Moon 9:06 AM AKST (11/4) 4:52 PM AKST (11/4)
Length of Visible Light 10h 00m
Length of Day
8h 31m
New Moon, 2% of the Moon is Illuminated
Nov 4
New Moon
Nov 9
First Quarter
Nov 17
Full
Nov 25
Last Quarter
Dec 2
New

Hourly Weather History & Observations

Time (AKST) Temp. Windchill Dew Point Humidity Pressure Visibility Wind Dir Wind Speed Gust Speed Precip Events Conditions
12:50 AM 28.4 °F 24.6 °F 26.6 °F 93% 29.92 in 2.0 mi NW 3.5 mph - N/A   Mostly Cloudy
12:54 AM 28.0 °F 20.0 °F 27.0 °F 96% 29.93 in 2.0 mi WNW 8.1 mph - N/A   Mostly Cloudy
1:02 AM 28.4 °F - 26.6 °F 93% 29.92 in 1.0 mi Calm Calm - N/A   Mist
1:08 AM 28.4 °F - 28.4 °F 100% 29.91 in 4.0 mi Calm Calm - N/A   Mostly Cloudy
1:50 AM 28.4 °F 21.2 °F 26.6 °F 93% 29.89 in 1.8 mi WNW 6.9 mph - N/A   Mostly Cloudy
1:54 AM 28.0 °F 20.0 °F 27.0 °F 96% 29.90 in 1.5 mi WNW 8.1 mph - N/A   Mostly Cloudy
2:11 AM 28.4 °F 23.3 °F 28.4 °F 100% 29.87 in 3.0 mi NW 4.6 mph - N/A   Mostly Cloudy
2:42 AM 28.4 °F 20.4 °F 28.4 °F 100% 29.86 in 2.5 mi WNW 8.1 mph - N/A   Overcast
2:49 AM 28.4 °F 19.7 °F 28.4 °F 100% 29.86 in 3.0 mi WNW 9.2 mph - N/A   Overcast
2:54 AM 28.0 °F 19.3 °F 28.0 °F 100% 29.86 in 3.0 mi WNW 9.2 mph - N/A   Overcast
3:03 AM 28.4 °F 19.1 °F 28.4 °F 100% 29.85 in 2.0 mi WNW 10.4 mph - N/A   Overcast
3:15 AM 28.4 °F 19.7 °F 28.4 °F 100% 29.84 in 3.0 mi WNW 9.2 mph - N/A   Overcast
3:45 AM 28.4 °F 19.1 °F 28.4 °F 100% 29.82 in 5.0 mi WNW 10.4 mph - N/A   Overcast
3:54 AM 28.9 °F 19.8 °F 28.0 °F 96% 29.82 in 6.0 mi WNW 10.4 mph - N/A   Overcast
4:21 AM 28.4 °F 18.0 °F 28.4 °F 100% 29.81 in 1.8 mi WNW 12.7 mph - N/A   Overcast
4:34 AM 28.4 °F 19.7 °F 28.4 °F 100% 29.80 in 3.0 mi WNW 9.2 mph - N/A   Overcast
4:54 AM 30.0 °F 20.5 °F 28.0 °F 92% 29.80 in 10.0 mi WNW 11.5 mph - N/A   Overcast
5:54 AM 30.9 °F 22.8 °F 28.9 °F 92% 29.76 in 10.0 mi WNW 9.2 mph - N/A   Overcast
6:54 AM 30.9 °F 21.2 °F 28.9 °F 92% 29.73 in 10.0 mi WNW 12.7 mph - N/A   Overcast
7:54 AM 30.9 °F 21.7 °F 28.9 °F 92% 29.71 in 10.0 mi WNW 11.5 mph - N/A   Overcast
8:54 AM 34.0 °F 26.0 °F 28.0 °F 79% 29.69 in 10.0 mi WNW 10.4 mph - N/A   Overcast
9:54 AM 32.0 °F 24.8 °F 30.0 °F 92% 29.68 in 5.0 mi WNW 8.1 mph - 0.00 in Snow Light Snow
10:05 AM 32.0 °F 26.4 °F 30.2 °F 93% 29.67 in 3.0 mi West 5.8 mph - 0.00 in Snow Light Snow
10:12 AM 32.0 °F 25.6 °F 30.2 °F 93% 29.67 in 1.8 mi West 6.9 mph - 0.00 in Snow Light Snow
10:41 AM 32.0 °F 24.8 °F 30.2 °F 93% 29.67 in 0.8 mi WNW 8.1 mph - 0.00 in Snow Light Snow
10:54 AM 30.9 °F 23.5 °F 30.0 °F 96% 29.68 in 0.8 mi WNW 8.1 mph - 0.01 in Snow Light Snow
11:18 AM 32.0 °F 26.4 °F 30.2 °F 93% 29.67 in 1.0 mi WNW 5.8 mph - 0.01 in Snow Light Snow
11:54 AM 32.0 °F - 30.0 °F 92% 29.67 in 1.0 mi Calm Calm - 0.02 in Snow Light Snow
12:12 PM 32.0 °F - 30.2 °F 93% 29.66 in 1.8 mi Calm Calm - 0.01 in Snow Light Snow
12:24 PM 32.0 °F - 30.2 °F 93% 29.66 in 0.8 mi Calm Calm - 0.02 in Snow Light Snow
12:50 PM 33.8 °F 30.8 °F 30.2 °F 87% 29.65 in 1.0 mi East 3.5 mph - 0.04 in Snow Light Snow
12:54 PM 33.1 °F 30.0 °F 32.0 °F 96% 29.66 in 1.5 mi Variable 3.5 mph - 0.04 in Snow Light Snow
1:04 PM 33.8 °F 30.8 °F 32.0 °F 93% 29.65 in 2.0 mi Variable 3.5 mph - 0.00 in Snow Light Snow
1:22 PM 33.8 °F 29.6 °F 32.0 °F 93% 29.64 in 4.0 mi East 4.6 mph - 0.01 in Snow Light Snow
1:38 PM 33.8 °F 27.0 °F 32.0 °F 93% 29.64 in 2.5 mi ESE 8.1 mph - 0.01 in Snow Light Snow
1:52 PM 33.8 °F 27.0 °F 32.0 °F 93% 29.63 in 5.0 mi ESE 8.1 mph - 0.01 in Snow Light Snow
1:54 PM 33.1 °F 26.9 °F 32.0 °F 96% 29.64 in 5.0 mi ESE 6.9 mph - 0.01 in Snow Light Snow
2:54 PM 34.0 °F 27.2 °F 32.0 °F 92% 29.63 in 5.0 mi ESE 8.1 mph - 0.00 in Snow Light Snow
10:54 PM 37.0 °F 31.0 °F 35.1 °F 93% 29.63 in 9.0 mi ENE 8.1 mph - 0.01 in Rain Light Rain
11:54 PM 33.1 °F 27.7 °F 32.0 °F 96% 29.63 in 10.0 mi WNW 5.8 mph - 0.01 in Rain Light Rain